User: anonymous   Login
Location: Unspecified
(0.0000°N, 0.0000°E)
Time: 05:30:44
(UTC+00:00)
Language:

AO-27 - Orbit

View from above orbital plane
View from above orbital plane
View from above satellite
View from above satellite

Ground track
Ground track

The orbit data is extracted from the following two-line orbital elements,

1 22825U 93061C   17177.49863330 -.00000018 +00000-0 +10935-4 0  9999
2 22825 098.8127 143.1947 0007526 309.8323 050.2196 14.29999051238468
Epoch (UTC): 26 June 2017 11:58:01
Eccentricity: 0.0007526
inclination: 98.8127°
perigee height: 786 km
apogee height: 797 km
right ascension of ascending node: 143.1947°
argument of perigee: 309.8323°
revolutions per day: 14.29999051
mean anomaly at epoch: 50.2196°
orbit number at epoch: 23846

The dashed part of the orbit path shows where the satellite is in the earth's shadow,  

DLR